Weather History for Okeechobee, FL

Change the Weather History Date:

Monday, June 17, 2013

  Actual Average Record
Temperature  
Mean Temperature 80 °F -  
Max Temperature 89 °F 89 °F 96 °F (2011)
Min Temperature 71 °F 72 °F 64 °F (1988)
Cooling Degree Days 15    
Growing Degree Days 30 (Base 50)    
Moisture  
Dew Point 72 °F    
Average Humidity 75    
Maximum Humidity 100    
Minimum Humidity 43    
Precipitation  
Precipitation 0.00 in - - ()
Sea Level Pressure  
Sea Level Pressure 30.06 in    
Wind  
Wind Speed 5 mph (SSE)    
Max Wind Speed 13 mph    
Max Gust Speed 18 mph    
Visibility 10 miles    
Events      
Averages and records for this station are not official NWS values.
T = Trace of Precipitation, MM = Missing Value Source: NWS Daily Summary

Daily Weather History Graph

Daily Weather History Graph

Search for Another Location

Airport:

Trip Planner

Search our weather history database for the weather conditions in past years. The results will help you decide how hot, cold, wet, or windy it might be!

Date:

Astronomy

Jun. 17, 2013 Rise Set
Actual Time 6:28 AM EDT 8:20 PM EDT
Civil Twilight 6:02 AM EDT 8:46 PM EDT
Nautical Twilight 5:30 AM EDT 9:18 PM EDT
Astronomical Twilight 4:56 AM EDT 9:52 PM EDT
Moon 2:22 PM EDT (6/17) 1:34 AM EDT (6/17)
Length of Visible Light 14h 44m
Length of Day
13h 51m
First Quarter, 60% of the Moon is Illuminated
Jun 17
First Quarter
Jun 23
Full
Jun 30
Last Quarter
Jul 8
New
Jul 15
First Quarter

Hourly Weather History & Observations

Time (EDT) Temp. Heat Index Dew Point Humidity Pressure Visibility Wind Dir Wind Speed Gust Speed Precip Events Conditions
12:15 AM 77.0 °F - 73.4 °F 89% 30.09 in 10.0 mi SE 5.8 mph - N/A   Clear
12:35 AM 77.0 °F - 73.4 °F 89% 30.09 in 10.0 mi SE 4.6 mph - N/A   Clear
12:55 AM 77.0 °F - 73.4 °F 89% 30.09 in 10.0 mi Calm Calm - N/A   Clear
1:15 AM 75.2 °F - 73.4 °F 94% 30.09 in 10.0 mi ESE 3.5 mph - N/A   Scattered Clouds
1:35 AM 75.2 °F - 73.4 °F 94% 30.09 in 10.0 mi ESE 3.5 mph - N/A   Mostly Cloudy
1:55 AM 75.2 °F - 73.4 °F 94% 30.09 in 10.0 mi SE 3.5 mph - N/A   Scattered Clouds
2:15 AM 77.0 °F - 73.4 °F 89% 30.08 in 10.0 mi South 6.9 mph - N/A   Scattered Clouds
2:35 AM 78.8 °F - 73.4 °F 83% 30.07 in 10.0 mi SSE 5.8 mph - N/A   Scattered Clouds
2:55 AM 78.8 °F - 73.4 °F 83% 30.06 in 10.0 mi South 6.9 mph - N/A   Scattered Clouds
3:15 AM 78.8 °F - 73.4 °F 83% 30.05 in 10.0 mi South 5.8 mph - N/A   Clear
3:35 AM 78.8 °F - 73.4 °F 83% 30.04 in 10.0 mi South 8.1 mph - N/A   Clear
3:55 AM 77.0 °F - 73.4 °F 89% 30.03 in 10.0 mi South 4.6 mph - N/A   Clear
4:15 AM 77.0 °F - 73.4 °F 89% 30.04 in 10.0 mi South 3.5 mph - N/A   Clear
4:35 AM 77.0 °F - 73.4 °F 89% 30.05 in 10.0 mi SW 3.5 mph - N/A   Clear
4:55 AM 75.2 °F - 73.4 °F 94% 30.06 in 10.0 mi Calm Calm - N/A   Clear
5:15 AM 73.4 °F - 73.4 °F 100% 30.06 in 10.0 mi Calm Calm - N/A   Scattered Clouds
5:35 AM 73.4 °F - 71.6 °F 94% 30.06 in 7.0 mi ENE 3.5 mph - N/A   Clear
5:55 AM 71.6 °F - 71.6 °F 100% 30.07 in 5.0 mi Calm Calm - N/A   Clear
6:15 AM 71.6 °F - 71.6 °F 100% 30.06 in 5.0 mi Calm Calm - N/A   Clear
6:35 AM 71.6 °F - 71.6 °F 100% 30.06 in 4.0 mi Calm Calm - N/A   Clear
6:55 AM 71.6 °F - 71.6 °F 100% 30.06 in 4.0 mi SSE 3.5 mph - N/A   Clear
7:15 AM 73.4 °F - 73.4 °F 100% 30.06 in 4.0 mi Calm Calm - N/A   Clear
7:35 AM 73.4 °F - 73.4 °F 100% 30.06 in 7.0 mi Calm Calm - N/A   Clear
7:55 AM 77.0 °F - 73.4 °F 89% 30.07 in 10.0 mi Calm Calm - N/A   Clear
8:15 AM 78.8 °F - 73.4 °F 83% 30.07 in 10.0 mi Calm Calm - N/A   Clear
8:35 AM 78.8 °F - 73.4 °F 83% 30.08 in 10.0 mi Calm Calm - N/A   Clear
8:55 AM 80.6 °F 86.2 °F 75.2 °F 84% 30.08 in 10.0 mi Calm Calm - N/A   Clear
9:15 AM 80.6 °F 86.2 °F 75.2 °F 84% 30.08 in 10.0 mi South 4.6 mph - N/A   Clear
9:35 AM 80.6 °F 86.2 °F 75.2 °F 84% 30.09 in 10.0 mi SW 3.5 mph - N/A   Scattered Clouds
9:55 AM 82.4 °F 89.5 °F 75.2 °F 79% 30.09 in 10.0 mi SW 3.5 mph - N/A   Mostly Cloudy
10:15 AM 84.2 °F 90.9 °F 73.4 °F 70% 30.09 in 10.0 mi South 8.1 mph - N/A   Overcast
10:35 AM 86.0 °F 95.1 °F 75.2 °F 70% 30.09 in 10.0 mi SSE 6.9 mph - N/A   Mostly Cloudy
10:55 AM 86.0 °F 93.4 °F 73.4 °F 66% 30.09 in 10.0 mi South 4.6 mph - N/A   Scattered Clouds
11:15 AM 86.0 °F 93.4 °F 73.4 °F 66% 30.09 in 10.0 mi SSW 4.6 mph - N/A   Mostly Cloudy
11:35 AM 84.2 °F 90.9 °F 73.4 °F 70% 30.09 in 10.0 mi South 3.5 mph - N/A   Scattered Clouds
11:55 AM 86.0 °F 93.4 °F 73.4 °F 66% 30.09 in 10.0 mi Calm Calm - N/A   Scattered Clouds
12:15 PM 86.0 °F 91.8 °F 71.6 °F 62% 30.08 in 10.0 mi South 5.8 mph - N/A   Scattered Clouds
12:35 PM 87.8 °F 97.6 °F 75.2 °F 66% 30.08 in 10.0 mi South 6.9 mph - N/A   Mostly Cloudy
12:55 PM 87.8 °F 95.6 °F 73.4 °F 62% 30.08 in 10.0 mi South 5.8 mph - N/A   Scattered Clouds
1:15 PM 87.8 °F 92.6 °F 69.8 °F 55% 30.07 in 10.0 mi SE 4.6 mph - N/A   Clear
1:35 PM 87.8 °F 92.6 °F 69.8 °F 55% 30.07 in 10.0 mi SSW 6.9 mph - N/A   Clear
1:55 PM 87.8 °F 91.4 °F 68.0 °F 52% 30.07 in 10.0 mi SSW 5.8 mph - N/A   Clear
2:15 PM 87.8 °F 91.4 °F 68.0 °F 52% 30.07 in 10.0 mi South 8.1 mph - N/A   Clear
2:35 PM 89.6 °F 91.1 °F 64.4 °F 43% 30.06 in 10.0 mi SSW 5.8 mph - N/A   Clear
2:55 PM 89.6 °F 92.2 °F 66.2 °F 46% 30.06 in 10.0 mi South 6.9 mph - N/A   Scattered Clouds
3:15 PM 89.6 °F 93.4 °F 68.0 °F 49% 30.05 in 10.0 mi SSW 9.2 mph - N/A   Scattered Clouds
3:35 PM 89.6 °F 93.4 °F 68.0 °F 49% 30.05 in 10.0 mi SW 9.2 mph - N/A   Clear
3:55 PM 89.6 °F 93.4 °F 68.0 °F 49% 30.03 in 10.0 mi SSW 9.2 mph - N/A   Clear
4:15 PM 89.6 °F 93.4 °F 68.0 °F 49% 30.03 in 10.0 mi South 10.4 mph - N/A   Clear
4:35 PM 89.6 °F 94.7 °F 69.8 °F 52% 30.03 in 10.0 mi South 9.2 mph - N/A   Clear
4:55 PM 89.6 °F 94.7 °F 69.8 °F 52% 30.02 in 10.0 mi SE 9.2 mph - N/A   Clear
5:15 PM 89.6 °F 94.7 °F 69.8 °F 52% 30.02 in 10.0 mi South 8.1 mph - N/A   Clear
5:35 PM 87.8 °F 95.6 °F 73.4 °F 62% 30.01 in 10.0 mi SSE 12.7 mph - N/A   Clear
5:55 PM 87.8 °F 95.6 °F 73.4 °F 62% 30.01 in 10.0 mi SE 11.5 mph 16.1 mph N/A   Clear
6:15 PM 87.8 °F 93.8 °F 71.6 °F 58% 30.01 in 10.0 mi SE 8.1 mph - N/A   Clear
6:35 PM 87.8 °F 95.6 °F 73.4 °F 62% 30.02 in 10.0 mi SSE 8.1 mph - N/A   Clear
6:55 PM 86.0 °F 91.8 °F 71.6 °F 62% 30.01 in 10.0 mi SSE 6.9 mph - N/A   Clear
7:15 PM 86.0 °F 93.4 °F 73.4 °F 66% 30.01 in 10.0 mi SE 8.1 mph - N/A   Clear
7:35 PM 84.2 °F 90.9 °F 73.4 °F 70% 30.02 in 10.0 mi SE 8.1 mph - N/A   Clear
7:55 PM 82.4 °F 88.2 °F 73.4 °F 74% 30.02 in 10.0 mi SE 8.1 mph - N/A   Clear
8:15 PM 82.4 °F 88.2 °F 73.4 °F 74% 30.02 in 10.0 mi SE 4.6 mph - N/A   Clear
8:35 PM 80.6 °F 85.4 °F 73.4 °F 79% 30.03 in 10.0 mi SE 4.6 mph - N/A   Clear
8:55 PM 80.6 °F 85.4 °F 73.4 °F 79% 30.03 in 10.0 mi ESE 4.6 mph - N/A   Clear
9:15 PM 80.6 °F 85.4 °F 73.4 °F 79% 30.04 in 10.0 mi SE 4.6 mph - N/A   Clear
9:35 PM 78.8 °F - 73.4 °F 83% 30.04 in 10.0 mi SSE 5.8 mph - N/A   Clear
9:55 PM 82.4 °F 88.2 °F 73.4 °F 74% 30.05 in 10.0 mi SSE 11.5 mph 18.4 mph N/A   Clear
10:15 PM 80.6 °F 85.4 °F 73.4 °F 79% 30.07 in 10.0 mi SSE 9.2 mph 18.4 mph N/A   Clear
10:35 PM 80.6 °F 86.2 °F 75.2 °F 84% 30.08 in 10.0 mi South 11.5 mph - N/A   Clear
10:55 PM 80.6 °F 85.4 °F 73.4 °F 79% 30.08 in 10.0 mi South 10.4 mph 16.1 mph N/A   Clear
11:15 PM 80.6 °F 85.4 °F 73.4 °F 79% 30.07 in 10.0 mi South 10.4 mph - N/A   Clear
11:35 PM 80.6 °F 85.4 °F 73.4 °F 79% 30.08 in 10.0 mi South 8.1 mph 16.1 mph N/A   Clear
11:55 PM 80.6 °F 85.4 °F 73.4 °F 79% 30.08 in 10.0 mi South 9.2 mph - N/A   Clear